When you browse on this site, cookies collect data to enhance your experience and personalize the content and advertising you see.
Visit our Privacy Policy to learn more. By continuing to use the site, you agree to this use of cookies and data.
  • In Hungary
  • List of Countries
  • For 7 days
  • Water Temperature
  • Weather Map
  • News
  • Weather Widgets
  • user-avatar
    Login

    Hourly Weather Pervokrasnoe

    Today, 1 June, Monday

    Time Temperature Precipitation Wind Pressure Humidity
    00:00 +17°C° 0 mm 4 mps 743 mmHg 74%
    01:00 +15°C° 0 mm 4 mps 743 mmHg 76%
    02:00 +15°C° 0 mm 4 mps 743 mmHg 79%
    03:00 +14°C° 0 mm 4 mps 743 mmHg 82%
    04:00 +14°C° 0 mm 4 mps 743 mmHg 84%
    05:00 +14°C° 0 mm 4 mps 744 mmHg 81%
    06:00 +15°C° 0 mm 5 mps 744 mmHg 78%
    07:00 +16°C° 0 mm 5 mps 744 mmHg 75%
    08:00 +17°C° 0 mm 5 mps 744 mmHg 70%
    09:00 +20°C° 0 mm 6 mps 745 mmHg 65%
    10:00 +21°C° 0 mm 6 mps 745 mmHg 59%
    11:00 +21°C° 0 mm 6 mps 745 mmHg 56%
    12:00 +22°C° 0 mm 6 mps 745 mmHg 53%
    13:00 +23°C° 0 mm 6 mps 745 mmHg 50%
    14:00 +23°C° 0 mm 6 mps 745 mmHg 50%
    15:00 +23°C° 0 mm 6 mps 745 mmHg 50%
    16:00 +23°C° 0 mm 6 mps 745 mmHg 51%
    17:00 +22°C° 0 mm 5 mps 745 mmHg 55%
    18:00 +22°C° 0 mm 4 mps 745 mmHg 59%
    19:00 +21°C° 0 mm 3 mps 745 mmHg 63%
    20:00 +20°C° 0 mm 2 mps 745 mmHg 67%
    21:00 +19°C° 0 mm 1 mps 746 mmHg 71%
    22:00 +18°C° 0 mm 1 mps 746 mmHg 75%
    23:00 +16°C° 0 mm 1 mps 746 mmHg 77%

    Tomorrow, 2 June, Tuesday

    Time Temperature Precipitation Wind Pressure Humidity
    00:00 +15°C° 0 mm 0 mps 746 mmHg 78%
    01:00 +14°C° 0 mm 0 mps 746 mmHg 80%
    02:00 +14°C° 0 mm 0 mps 746 mmHg 81%
    03:00 +14°C° 0 mm 0 mps 746 mmHg 82%
    04:00 +13°C° 0 mm 0 mps 747 mmHg 84%
    05:00 +15°C° 0 mm 0 mps 746 mmHg 79%
    06:00 +16°C° 0 mm 0 mps 746 mmHg 75%
    07:00 +17°C° 0 mm 0 mps 746 mmHg 70%
    08:00 +18°C° 0 mm 0 mps 747 mmHg 65%
    09:00 +22°C° 0 mm 1 mps 747 mmHg 60%
    10:00 +23°C° 0 mm 1 mps 747 mmHg 54%
    11:00 +24°C° 0 mm 1 mps 747 mmHg 51%
    12:00 +24°C° 0 mm 1 mps 747 mmHg 47%
    13:00 +23°C° 0 mm 0 mps 747 mmHg 44%
    14:00 +24°C° 0 mm 2 mps 747 mmHg 51%
    15:00 +22°C° 0 mm 3 mps 747 mmHg 57%
    16:00 +22°C° 0 mm 4 mps 747 mmHg 64%
    17:00 +21°C° 0 mm 4 mps 747 mmHg 67%
    18:00 +20°C° 0 mm 4 mps 746 mmHg 70%
    19:00 +20°C° 0 mm 5 mps 746 mmHg 73%
    20:00 +19°C° 0 mm 4 mps 746 mmHg 75%
    21:00 +18°C° 0 mm 4 mps 746 mmHg 77%
    22:00 +17°C° 0 mm 4 mps 746 mmHg 80%
    23:00 +15°C° 0 mm 4 mps 746 mmHg 81%

    Day after tomorrow, 3 June, Wednesday

    Time Temperature Precipitation Wind Pressure Humidity
    00:00 +15°C° 0 mm 4 mps 746 mmHg 82%
    01:00 +14°C° 0 mm 4 mps 745 mmHg 83%
    02:00 +14°C° 0 mm 4 mps 745 mmHg 82%
    03:00 +14°C° 0 mm 3 mps 745 mmHg 81%
    04:00 +13°C° 0 mm 3 mps 745 mmHg 79%
    05:00 +14°C° 0 mm 4 mps 745 mmHg 77%
    06:00 +15°C° 0 mm 4 mps 745 mmHg 75%
    07:00 +17°C° 0 mm 4 mps 745 mmHg 74%
    08:00 +19°C° 0 mm 4 mps 745 mmHg 69%
    09:00 +20°C° 0 mm 4 mps 745 mmHg 65%
    10:00 +22°C° 0 mm 5 mps 745 mmHg 61%
    11:00 +23°C° 0 mm 5 mps 745 mmHg 57%
    12:00 +25°C° 0 mm 5 mps 744 mmHg 53%
    13:00 +26°C° 0 mm 5 mps 744 mmHg 50%
    14:00 +27°C° 0 mm 5 mps 744 mmHg 50%
    15:00 +27°C° 0 mm 5 mps 744 mmHg 51%
    16:00 +27°C° 0 mm 5 mps 744 mmHg 52%
    17:00 +26°C° 0 mm 5 mps 744 mmHg 57%
    18:00 +25°C° 0 mm 5 mps 744 mmHg 63%
    19:00 +22°C° 0 mm 5 mps 743 mmHg 68%
    20:00 +21°C° 0 mm 5 mps 743 mmHg 71%
    21:00 +20°C° 0 mm 5 mps 743 mmHg 74%
    22:00 +17°C° 0 mm 5 mps 743 mmHg 78%
    23:00 +16°C° 0 mm 5 mps 743 mmHg 79%

    4 June, Thursday

    Time Temperature Precipitation Wind Pressure Humidity
    00:00 +16°C° 0 mm 5 mps 743 mmHg 81%
    01:00 +15°C° 0 mm 5 mps 742 mmHg 82%
    02:00 +15°C° 0 mm 5 mps 742 mmHg 84%
    03:00 +15°C° 0 mm 5 mps 742 mmHg 86%
    04:00 +15°C° 0 mm 5 mps 742 mmHg 88%
    05:00 +16°C° 0 mm 5 mps 742 mmHg 82%
    06:00 +17°C° 0 mm 6 mps 742 mmHg 77%
    07:00 +19°C° 0 mm 6 mps 742 mmHg 71%
    08:00 +20°C° 0 mm 6 mps 742 mmHg 68%
    09:00 +21°C° 0 mm 6 mps 742 mmHg 64%
    10:00 +23°C° 0 mm 6 mps 742 mmHg 61%
    11:00 +23°C° 0 mm 6 mps 742 mmHg 59%
    12:00 +24°C° 0 mm 7 mps 742 mmHg 56%
    13:00 +26°C° 0 mm 7 mps 742 mmHg 54%
    14:00 +24°C° 0.1 mm 7 mps 743 mmHg 58%
    15:00 +23°C° 0.1 mm 8 mps 743 mmHg 61%
    16:00 +23°C° 0.1 mm 8 mps 743 mmHg 64%
    17:00 +21°C° 0.3 mm 8 mps 743 mmHg 69%
    18:00 +20°C° 0.3 mm 8 mps 743 mmHg 74%
    19:00 +18°C° 0.3 mm 8 mps 743 mmHg 79%
    20:00 +18°C° 0 mm 8 mps 743 mmHg 75%
    21:00 +18°C° 0 mm 8 mps 743 mmHg 71%
    22:00 +18°C° 0 mm 8 mps 744 mmHg 67%
    23:00 +18°C° 0.1 mm 8 mps 744 mmHg 66%

    5 June, Friday

    Time Temperature Precipitation Wind Pressure Humidity
    00:00 +17°C° 0.1 mm 8 mps 744 mmHg 65%
    01:00 +17°C° 0.1 mm 8 mps 744 mmHg 64%
    02:00 +16°C° 0.6 mm 8 mps 744 mmHg 68%
    03:00 +16°C° 0.6 mm 7 mps 744 mmHg 71%
    04:00 +15°C° 0.6 mm 7 mps 744 mmHg 75%
    05:00 +15°C° 0.2 mm 7 mps 745 mmHg 74%
    06:00 +15°C° 0.2 mm 7 mps 745 mmHg 72%
    07:00 +14°C° 0.2 mm 6 mps 745 mmHg 71%
    08:00 +14°C° 0.3 mm 6 mps 745 mmHg 72%
    09:00 +14°C° 0.3 mm 6 mps 746 mmHg 73%
    10:00 +14°C° 0.3 mm 5 mps 746 mmHg 75%
    11:00 +14°C° 0.5 mm 6 mps 746 mmHg 74%
    12:00 +15°C° 0.5 mm 7 mps 746 mmHg 74%
    13:00 +15°C° 0.5 mm 7 mps 747 mmHg 74%
    14:00 +15°C° 0.1 mm 8 mps 747 mmHg 72%
    15:00 +16°C° 0.1 mm 9 mps 747 mmHg 70%
    16:00 +17°C° 0.1 mm 9 mps 747 mmHg 68%
    17:00 +16°C° 0.1 mm 9 mps 747 mmHg 69%
    18:00 +16°C° 0.1 mm 9 mps 747 mmHg 70%
    19:00 +15°C° 0.1 mm 8 mps 746 mmHg 71%
    20:00 +15°C° 0 mm 8 mps 746 mmHg 68%
    21:00 +15°C° 0 mm 7 mps 747 mmHg 64%
    22:00 +15°C° 0 mm 7 mps 747 mmHg 61%
    23:00 +15°C° 0.1 mm 7 mps 747 mmHg 61%

    6 June, Saturday

    Time Temperature Precipitation Wind Pressure Humidity
    00:00 +15°C° 0.1 mm 6 mps 746 mmHg 60%
    01:00 +15°C° 0.1 mm 6 mps 746 mmHg 60%
    02:00 +15°C° 0.1 mm 5 mps 746 mmHg 63%
    03:00 +14°C° 0.1 mm 5 mps 746 mmHg 67%
    04:00 +14°C° 0.1 mm 5 mps 746 mmHg 70%
    05:00 +14°C° 0.2 mm 5 mps 746 mmHg 71%
    06:00 +14°C° 0.2 mm 5 mps 746 mmHg 73%
    07:00 +14°C° 0.2 mm 5 mps 746 mmHg 74%
    08:00 +14°C° 1.4 mm 5 mps 746 mmHg 79%
    09:00 +13°C° 1.4 mm 4 mps 746 mmHg 85%
    10:00 +13°C° 1.4 mm 4 mps 747 mmHg 91%
    11:00 +13°C° 1.7 mm 4 mps 747 mmHg 90%
    12:00 +13°C° 1.7 mm 4 mps 747 mmHg 90%
    13:00 +13°C° 1.7 mm 4 mps 747 mmHg 89%
    14:00 +14°C° 0.1 mm 4 mps 747 mmHg 86%
    15:00 +15°C° 0.1 mm 4 mps 747 mmHg 83%
    16:00 +15°C° 0.1 mm 4 mps 747 mmHg 80%
    17:00 +15°C° 0 mm 4 mps 747 mmHg 81%
    18:00 +15°C° 0 mm 4 mps 747 mmHg 83%
    19:00 +15°C° 0 mm 4 mps 747 mmHg 84%
    20:00 +14°C° 0 mm 3 mps 747 mmHg 87%
    21:00 +13°C° 0 mm 3 mps 747 mmHg 90%
    22:00 +11°C° 0 mm 3 mps 748 mmHg 93%
    23:00 +11°C° 0 mm 3 mps 748 mmHg 93%
    Show more